ARIANE 5 R/B, 45248

Orbit data source: Space-Track

ARIANE 5 R/B, 45248 is space debris in HEO originally from a launch on Tue, 18 Feb 2020 UTC launched from the French Guiana (FRGUI). Debris objects in space refer to the collection of defunct objects orbiting the Earth. Examples of debris include non-operational satellites, rocket bodies, and fragments generated from explosions, collisions, or faulty payload assembly.

Loading next visibility...
Identifier
45248, 2020-013D
Orbit
HEO
Country
Flag of FRFR
Related business
Manufacturer
ArianeGroup
Mission
Spacecraft
Bus & Motor
ESC-A, Unknown motor
Mass
~5,000 kg wet, ~5,000 kg dry
Launch date (UTC)
2020-02-18 (7 years ago)
Launch vehicle
Unknown
Launch site
French Guiana (FRGUI)
Object type
Payload
Rocket body
Debris
Shape & HBR
Cyl + 1 Nozzle, 4.4 m
Radar Cross Section
41.627 m², Large (>1 m²)

Expand to show TLE details & history
Last TLE update: 14 hours ago

TLE from 14 hours ago
0 ARIANE 5 R/B
1 45248U 20013D   26258.18318425  .00000618  00000-0  35861-3 0  9995
2 45248   6.0334 351.2890 7140954  73.1437 348.8498  2.44445164 56711
Epoch: 2026-09-15T04:23Z
TLE epoch observation values (Epoch: 2026-09-15T04:23:47.119Z)
Latitude
0.00001°
Longitude
-68.8647°
Altitude
3,093.068 km
Speed
8.188 km/s
True Right ascension
23h 24m 56s
True Declination
0° 00' 00"
Sunlit
Object was in full shadow at epoch
Visualization orbit readout
Latitude
Unknown
Longitude
Unknown
Altitude
Unknown
Speed
Unknown
Apparent Right ascension
Unknown
Apparent Declination
Unknown
Sunlit
N/A
Visualization observer readout
Local Sidereal Time
11:21:15
Azimuth
Unknown
Elevation
Unknown
Doppler factor
Unknown
Orbital elements
Apogee altitude
33,532.071 km
Perigee altitude
278.734 km
Semi-major axis
23,283.539 km
Eccentricity
0.7141
Inclination
6.0334°
RAAN
351.289°
Arg. of periapsis
73.1437°
True anomaly
286.24001°
Mean anomaly
348.8498°
Eccentric anomaly
325.92802°
Mean motion
0.6109 °/min
Orbital period
589.3 mins
BSTAR
0.00035861
Loading maneuver chart data...
Computing Atmospheric mass density...
Loading historical data...
Loading historical data...
Loading historical data...
Loading historical data...
Loading historical data...
Loading historical data...
Loading historical data...
Other satellites on launch #13 in the year 2020 (2020-02-18 UTC)

Documentation

Showing up to 5 results
|